When you browse on this site, cookies collect data to enhance your experience and personalize the content and advertising you see.
Visit our Privacy Policy to learn more. By continuing to use the site, you agree to this use of cookies and data.
  • In Schweiz
  • Länderverzeichnis
  • Für 7 Tage
  • Wassertemperatur
  • Satellitenkarten
  • Wetterkarte
  • Widgets
  • user-avatar
    Anmelden

    Stündliche Wetter Brisbane

    Heute, 22 Januar, Dienstag

    Zeit Temperatur Niederschläge Wind Luftdruck Luftfeuchtigkeit
    00:00 +25°C° 0 mm 2 m/S 761 mmHg 83%
    01:00 +24°C° 0 mm 1 m/S 761 mmHg 84%
    02:00 +24°C° 0 mm 1 m/S 761 mmHg 83%
    03:00 +25°C° 0 mm 1 m/S 761 mmHg 82%
    04:00 +25°C° 0 mm 1 m/S 760 mmHg 81%
    05:00 +25°C° 0 mm 1 m/S 761 mmHg 78%
    06:00 +26°C° 0 mm 1 m/S 761 mmHg 76%
    07:00 +27°C° 0 mm 1 m/S 761 mmHg 73%
    08:00 +28°C° 0 mm 2 m/S 761 mmHg 69%
    09:00 +28°C° 0 mm 2 m/S 761 mmHg 65%
    10:00 +29°C° 0 mm 2 m/S 761 mmHg 61%
    11:00 +31°C° 0 mm 3 m/S 760 mmHg 56%
    12:00 +33°C° 0 mm 3 m/S 760 mmHg 51%
    13:00 +34°C° 0 mm 4 m/S 759 mmHg 47%
    14:00 +34°C° 0 mm 4 m/S 759 mmHg 49%
    15:00 +33°C° 0 mm 4 m/S 759 mmHg 52%
    16:00 +33°C° 0 mm 4 m/S 759 mmHg 55%
    17:00 +30°C° 0 mm 4 m/S 759 mmHg 61%
    18:00 +28°C° 0 mm 3 m/S 759 mmHg 68%
    19:00 +27°C° 0 mm 3 m/S 760 mmHg 74%
    20:00 +26°C° 0 mm 2 m/S 760 mmHg 77%
    21:00 +26°C° 0 mm 2 m/S 760 mmHg 80%
    22:00 +25°C° 0 mm 2 m/S 761 mmHg 83%
    23:00 +25°C° 0 mm 2 m/S 760 mmHg 85%

    Morgen, 23 Januar, Mittwoch

    Zeit Temperatur Niederschläge Wind Luftdruck Luftfeuchtigkeit
    00:00 +24°C° 0 mm 2 m/S 760 mmHg 87%
    01:00 +24°C° 0 mm 1 m/S 759 mmHg 90%
    02:00 +24°C° 0 mm 1 m/S 759 mmHg 89%
    03:00 +24°C° 0 mm 1 m/S 759 mmHg 89%
    04:00 +25°C° 0 mm 1 m/S 758 mmHg 89%
    05:00 +25°C° 0 mm 1 m/S 759 mmHg 86%
    06:00 +26°C° 0 mm 2 m/S 759 mmHg 83%
    07:00 +26°C° 0 mm 2 m/S 759 mmHg 80%
    08:00 +28°C° 0 mm 2 m/S 759 mmHg 72%
    09:00 +30°C° 0 mm 2 m/S 759 mmHg 64%
    10:00 +31°C° 0 mm 2 m/S 759 mmHg 56%
    11:00 +34°C° 0 mm 3 m/S 758 mmHg 51%
    12:00 +35°C° 0 mm 3 m/S 758 mmHg 46%
    13:00 +37°C° 0 mm 4 m/S 757 mmHg 41%
    14:00 +36°C° 0 mm 5 m/S 756 mmHg 45%
    15:00 +35°C° 0 mm 5 m/S 756 mmHg 49%
    16:00 +34°C° 0 mm 6 m/S 755 mmHg 53%
    17:00 +32°C° 0 mm 5 m/S 756 mmHg 58%
    18:00 +30°C° 0 mm 5 m/S 756 mmHg 64%
    19:00 +28°C° 0 mm 5 m/S 756 mmHg 70%
    20:00 +27°C° 0.7 mm 4 m/S 757 mmHg 74%
    21:00 +27°C° 0.7 mm 3 m/S 757 mmHg 78%
    22:00 +26°C° 0.7 mm 2 m/S 758 mmHg 82%
    23:00 +26°C° 0.5 mm 2 m/S 758 mmHg 83%

    übermorgen, 24 Januar, Donnerstag

    Zeit Temperatur Niederschläge Wind Luftdruck Luftfeuchtigkeit
    00:00 +25°C° 0.5 mm 2 m/S 758 mmHg 84%
    01:00 +25°C° 0.5 mm 2 m/S 758 mmHg 85%
    02:00 +25°C° 0.2 mm 1 m/S 758 mmHg 86%
    03:00 +25°C° 0.2 mm 1 m/S 757 mmHg 87%
    04:00 +24°C° 0.2 mm 1 m/S 757 mmHg 88%
    05:00 +25°C° 0 mm 1 m/S 758 mmHg 85%
    06:00 +26°C° 0 mm 1 m/S 758 mmHg 82%
    07:00 +27°C° 0 mm 1 m/S 759 mmHg 78%
    08:00 +29°C° 0 mm 1 m/S 759 mmHg 68%
    09:00 +31°C° 0 mm 2 m/S 759 mmHg 58%
    10:00 +35°C° 0 mm 2 m/S 759 mmHg 48%
    11:00 +35°C° 0 mm 3 m/S 758 mmHg 47%
    12:00 +35°C° 0 mm 4 m/S 758 mmHg 47%
    13:00 +35°C° 0 mm 4 m/S 757 mmHg 46%
    14:00 +35°C° 0 mm 5 m/S 757 mmHg 48%
    15:00 +34°C° 0 mm 5 m/S 757 mmHg 50%
    16:00 +33°C° 0 mm 5 m/S 757 mmHg 52%
    17:00 +32°C° 0 mm 4 m/S 758 mmHg 58%
    18:00 +29°C° 0 mm 4 m/S 758 mmHg 64%
    19:00 +28°C° 0 mm 3 m/S 759 mmHg 70%
    20:00 +28°C° 0 mm 3 m/S 759 mmHg 73%
    21:00 +27°C° 0 mm 3 m/S 760 mmHg 76%
    22:00 +27°C° 0 mm 2 m/S 760 mmHg 80%
    23:00 +26°C° 0 mm 2 m/S 760 mmHg 81%

    25 Januar, Freitag

    Zeit Temperatur Niederschläge Wind Luftdruck Luftfeuchtigkeit
    00:00 +26°C° 0 mm 2 m/S 760 mmHg 83%
    01:00 +26°C° 0 mm 2 m/S 759 mmHg 84%
    02:00 +25°C° 0 mm 2 m/S 759 mmHg 86%
    03:00 +25°C° 0 mm 1 m/S 759 mmHg 87%
    04:00 +25°C° 0 mm 1 m/S 759 mmHg 88%
    05:00 +26°C° 0.1 mm 1 m/S 759 mmHg 84%
    06:00 +27°C° 0.1 mm 1 m/S 760 mmHg 80%
    07:00 +28°C° 0.1 mm 2 m/S 760 mmHg 76%
    08:00 +29°C° 0.1 mm 2 m/S 760 mmHg 70%
    09:00 +30°C° 0.1 mm 3 m/S 760 mmHg 64%
    10:00 +32°C° 0.1 mm 4 m/S 760 mmHg 58%
    11:00 +33°C° 0 mm 4 m/S 760 mmHg 55%
    12:00 +33°C° 0 mm 4 m/S 759 mmHg 52%
    13:00 +34°C° 0 mm 5 m/S 759 mmHg 49%
    14:00 +33°C° 0 mm 5 m/S 758 mmHg 50%
    15:00 +33°C° 0 mm 4 m/S 758 mmHg 52%
    16:00 +32°C° 0 mm 4 m/S 758 mmHg 53%
    17:00 +30°C° 0 mm 4 m/S 758 mmHg 60%
    18:00 +28°C° 0 mm 3 m/S 758 mmHg 66%
    19:00 +27°C° 0 mm 3 m/S 759 mmHg 72%
    20:00 +26°C° 0 mm 2 m/S 759 mmHg 76%
    21:00 +26°C° 0 mm 2 m/S 760 mmHg 79%
    22:00 +25°C° 0 mm 2 m/S 760 mmHg 82%
    23:00 +25°C° 0 mm 2 m/S 760 mmHg 84%

    26 Januar, Samstag

    Zeit Temperatur Niederschläge Wind Luftdruck Luftfeuchtigkeit
    00:00 +25°C° 0 mm 2 m/S 759 mmHg 85%
    01:00 +24°C° 0 mm 1 m/S 759 mmHg 86%
    02:00 +24°C° 0 mm 1 m/S 759 mmHg 86%
    03:00 +24°C° 0 mm 1 m/S 759 mmHg 86%
    04:00 +24°C° 0 mm 1 m/S 758 mmHg 86%
    05:00 +25°C° 0 mm 1 m/S 759 mmHg 82%
    06:00 +26°C° 0 mm 1 m/S 759 mmHg 79%
    07:00 +27°C° 0 mm 1 m/S 760 mmHg 76%
    08:00 +28°C° 0 mm 1 m/S 759 mmHg 68%
    09:00 +29°C° 0 mm 2 m/S 759 mmHg 61%
    10:00 +31°C° 0 mm 3 m/S 759 mmHg 54%
    11:00 +33°C° 0 mm 3 m/S 759 mmHg 51%
    12:00 +34°C° 0 mm 4 m/S 758 mmHg 48%
    13:00 +34°C° 0 mm 4 m/S 758 mmHg 45%
    14:00 +34°C° 0 mm 4 m/S 757 mmHg 49%
    15:00 +33°C° 0 mm 5 m/S 757 mmHg 52%
    16:00 +33°C° 0 mm 5 m/S 756 mmHg 55%
    17:00 +30°C° 0 mm 5 m/S 757 mmHg 62%
    18:00 +29°C° 0 mm 4 m/S 757 mmHg 69%
    19:00 +27°C° 0 mm 4 m/S 757 mmHg 76%
    20:00 +27°C° 0 mm 3 m/S 758 mmHg 79%
    21:00 +26°C° 0 mm 3 m/S 758 mmHg 82%
    22:00 +25°C° 0 mm 3 m/S 758 mmHg 85%
    23:00 +25°C° 0 mm 2 m/S 758 mmHg 86%

    27 Januar, Sonntag

    Zeit Temperatur Niederschläge Wind Luftdruck Luftfeuchtigkeit
    00:00 +25°C° 0 mm 2 m/S 758 mmHg 88%
    01:00 +24°C° 0 mm 2 m/S 757 mmHg 89%
    02:00 +24°C° 0 mm 2 m/S 757 mmHg 90%
    03:00 +24°C° 0 mm 1 m/S 757 mmHg 91%
    04:00 +24°C° 0 mm 1 m/S 757 mmHg 91%
    05:00 +25°C° 0.1 mm 1 m/S 758 mmHg 88%
    06:00 +26°C° 0.1 mm 1 m/S 758 mmHg 84%
    07:00 +26°C° 0.1 mm 1 m/S 759 mmHg 80%
    08:00 +28°C° 0 mm 2 m/S 758 mmHg 70%
    09:00 +30°C° 0 mm 2 m/S 758 mmHg 61%
    10:00 +33°C° 0 mm 3 m/S 758 mmHg 51%
    11:00 +33°C° 0 mm 3 m/S 757 mmHg 48%
    12:00 +34°C° 0 mm 4 m/S 757 mmHg 46%
    13:00 +35°C° 0 mm 5 m/S 756 mmHg 43%
    14:00 +34°C° 0 mm 5 m/S 756 mmHg 46%
    15:00 +34°C° 0 mm 5 m/S 755 mmHg 48%
    16:00 +33°C° 0 mm 5 m/S 755 mmHg 50%
    17:00 +32°C° 0 mm 5 m/S 755 mmHg 56%
    18:00 +29°C° 0 mm 5 m/S 755 mmHg 62%
    19:00 +27°C° 0 mm 5 m/S 756 mmHg 68%
    20:00 +27°C° 0 mm 4 m/S 757 mmHg 72%
    21:00 +26°C° 0 mm 4 m/S 757 mmHg 76%
    22:00 +26°C° 0 mm 3 m/S 758 mmHg 79%
    23:00 +25°C° 0 mm 2 m/S 758 mmHg 82%
    Mehr zeigen